Location: Montr�al
(45.5000°N, 73.5830°W)
Time: 23:19:02
(UTC-04:00)

ISS - All Passes

Search period start: 30 March 2015 00:00
Search period end: 09 April 2015 00:00
Orbit: 396 x 405 km, 51.6° (Epoch: 30 March)

Date Brightness Start Highest point End Pass type
(mag) Time Alt. Az. Time Alt. Az. Time Alt. Az.
30 Mar - 00:43:48 10° W 00:46:55 42° NNW 00:50:02 10° NE night (unlit)
30 Mar - 02:21:02 10° WNW 02:23:51 26° N 02:26:39 10° ENE night (unlit)
30 Mar - 03:57:35 10° NW 04:00:44 47° NNE 04:03:53 10° E visible
30 Mar - 05:34:08 10° WNW 05:37:03 31° SW 05:39:57 10° SSE visible
30 Mar - 22:14:39 10° S 22:17:14 22° SE 22:19:52 10° E night (unlit)
30 Mar - 23:50:11 10° WSW 23:53:25 62° NNW 23:56:39 10° ENE night (unlit)
31 Mar - 01:27:23 10° WNW 01:30:14 27° N 01:33:04 10° NE night (unlit)
31 Mar - 03:04:10 10° NW 03:07:11 35° NNE 03:10:13 10° E visible
31 Mar - 04:40:32 10° WNW 04:43:44 57° SW 04:46:54 10° SE visible
31 Mar - 21:22:35 10° SSE 21:23:59 12° SE 21:25:29 10° ESE night (unlit)
31 Mar - 22:56:42 10° WSW 22:59:58 81° SSE 23:03:13 10° ENE night (unlit)
01 Apr - 00:33:39 10° WNW 00:36:36 31° NNW 00:39:33 10° NE night (unlit)
01 Apr - 02:10:42 10° NW 02:13:35 29° N 02:16:29 10° ENE night (unlit)
01 Apr - 03:47:03 10° WNW 03:50:19 82° NNE 03:53:32 10° ESE visible
01 Apr - 05:24:18 10° W 05:26:21 16° SW 05:28:20 10° S visible
01 Apr - 22:03:24 10° SW 22:06:32 45° SE 22:09:40 10° ENE night (unlit)
01 Apr - 23:39:53 10° W 23:42:59 39° NNW 23:46:04 10° NE night (unlit)
02 Apr - 01:17:06 10° WNW 01:19:55 26° N 01:22:44 10° ENE night (unlit)
02 Apr - 02:53:35 10° NW 02:56:47 52° NNE 02:59:57 10° E night (unlit)
02 Apr - 04:30:13 10° W 04:33:03 27° SW 04:35:50 10° SSE visible
02 Apr - 21:10:26 10° SSW 21:13:09 25° SE 21:15:55 10° E visible
02 Apr - 22:46:10 10° WSW 22:49:22 56° NNW 22:52:36 10° ENE night (unlit)
03 Apr - 00:23:23 10° WNW 00:26:13 27° N 00:29:03 10° ENE night (unlit)
03 Apr - 02:00:07 10° NW 02:03:10 37° NNE 02:06:13 10° E night (unlit)
03 Apr - 03:36:29 10° WNW 03:39:39 50° SW 03:42:47 10° SE night (unlit)
03 Apr - 20:18:01 10° SSE 20:19:48 14° SE 20:21:40 10° E visible
03 Apr - 21:52:33 10° WSW 21:55:49 90° WNW 21:59:05 10° ENE visible
03 Apr - 23:29:34 10° WNW 23:32:30 30° N 23:35:26 10° NE night (unlit)
04 Apr - 01:06:33 10° NW 01:09:28 30° N 01:12:24 10° ENE night (unlit)
04 Apr - 02:42:54 10° WNW 02:46:09 89° SSW 02:49:23 10° ESE night (unlit)
04 Apr - 04:20:23 10° W 04:22:09 14° SW 04:23:50 10° SSW night (unlit)
04 Apr - 20:59:07 10° SW 21:02:17 51° SE 21:05:29 10° ENE visible
04 Apr - 22:35:43 10° W 22:38:47 37° NNW 22:41:51 10° NE visible
05 Apr - 00:12:53 10° WNW 00:15:44 27° N 00:18:34 10° ENE night (unlit)
05 Apr - 01:49:21 10° WNW 01:52:34 56° NNE 01:55:45 10° ESE night (unlit)
05 Apr - 03:26:03 10° W 03:28:46 24° SW 03:31:27 10° SSE night (unlit)
05 Apr - 20:05:58 10° SSW 20:08:48 28° SE 20:11:41 10° ENE visible
05 Apr - 21:41:53 10° W 21:45:05 51° NNW 21:48:17 10° NE visible
05 Apr - 23:19:06 10° WNW 23:21:56 26° N 23:24:46 10° ENE visible
06 Apr - 00:55:47 10° NW 00:58:52 39° NNE 01:01:57 10° E night (unlit)
06 Apr - 02:32:11 10° WNW 02:35:18 44° SW 02:38:23 10° SE night (unlit)
06 Apr - 19:13:18 10° S 19:15:22 16° SE 19:17:30 10° E daylight
06 Apr - 20:48:08 10° WSW 20:51:25 81° NNW 20:54:41 10° ENE visible
06 Apr - 22:25:13 10° WNW 22:28:08 29° N 22:31:02 10° NE visible
07 Apr - 00:02:09 10° NW 00:05:06 31° N 00:08:03 10° ENE night (unlit)
07 Apr - 01:38:29 10° WNW 01:41:44 80° SSW 01:44:58 10° SE night (unlit)
07 Apr - 03:16:17 10° WSW 03:17:41 12° SW 03:18:59 10° SSW night (unlit)
07 Apr - 19:54:35 10° SW 19:57:47 58° SSE 20:01:01 10° ENE visible
07 Apr - 21:31:17 10° W 21:34:19 35° NNW 21:37:22 10° NE visible
07 Apr - 23:08:25 10° NW 23:11:16 27° N 23:14:07 10° ENE visible
08 Apr - 00:44:50 10° WNW 00:48:04 62° NNE 00:51:17 10° ESE night (unlit)
08 Apr - 02:21:38 10° W 02:24:14 22° SW 02:26:47 10° S night (unlit)
08 Apr - 19:01:16 10° SSW 19:04:12 32° SE 19:07:11 10° ENE daylight
08 Apr - 20:37:21 10° W 20:40:32 47° NNW 20:43:42 10° NE visible
08 Apr - 22:14:34 10° WNW 22:17:23 26° N 22:20:13 10° ENE visible
08 Apr - 23:51:11 10° NW 23:54:19 42° NNE 23:57:25 10° E visible
